Regional Weather Roundup
Issued by NWS

Home | Current Version | Previous Version | Text Only | Print | Product List | Glossary On
Versions: 1 2 3 4 5 6 7 8 9 10 11 12 13 14 15 16 17 18 19 20 21 22 23 24 25 26 27 28 29 30 31 32 33 34 35 36 37 38 39 40 41 42 43 44 45 46 47 48 49 50
000
ASUS43 KMPX 220610
RWRMN
WEATHER ROUNDUP FOR MINNESOTA
NATIONAL WEATHER SERVICE TWIN CITIES/CHANHASSEN MN
100 AM CDT MON SEP 22 2014


NOTE: "FAIR" INDICATES FEW OR NO CLOUDS BELOW 12,000 FEET WITH NO
SIGNIFICANT WEATHER AND/OR OBSTRUCTIONS TO VISIBILITY. N/A MEANS
CURRENT SKY AND/OR WEATHER CONDITIONS ARE NOT AVAILABLE.

MNZ060>063-068>070-220700-
   Twin Cities Metro

CITY           SKY/WX    TMP DP  RH WIND       PRES   REMARKS
TWIN CITIES    CLEAR     50  48  93 NW6       30.23S
6HR MIN TEMP:  50; 6HR MAX TEMP:  64;

ST PAUL        CLEAR     50  49  96 CALM      30.24R
CRYSTAL        CLEAR     53  48  83 W6        30.22S
BLAINE         CLEAR     52  50  93 W3        30.22S
LAKEVILLE      CLEAR     50  48  93 W5        30.23S
EDEN PRAIRIE   CLEAR     53  50  89 NW6       30.22S
6HR MIN TEMP:  53; 6HR MAX TEMP:  63;

SOUTH ST PAUL  CLEAR     51  47  87 CALM      30.22S
LAKE ELMO        N/A     45  45 100 CALM      30.23R FOG
$$
MNZ001>005-007-008-013>017-022>024-027-028-220700-
   Northwest Minnesota

CITY           SKY/WX    TMP DP  RH WIND       PRES   REMARKS
BEMIDJI        CLEAR     47  46  94 SW3       30.19S
HALLOCK        CLEAR     48  46  93 S7        30.14S
ROSEAU         CLEAR     48  45  87 SW8       30.15F
WARROAD        CLEAR     52  46  82 SW9       30.14F
THIEF RVR FALL CLEAR     48  45  87 S7        30.18F
CROOKSTON      CLEAR     50  48  93 S7        30.19F
FOSSTON        CLEAR     43  41  93 CALM      30.20S
DETROIT LAKES  FOG       46  46 100 CALM      30.23S VSB 1/2
MOORHEAD       CLEAR     50  50 100 S6        30.22S
PARK RAPIDS    CLEAR     41  41 100 W5        30.21S FOG
MAHNOMEN       FAIR      44  43  97 S5        30.21S
$$
MNZ006-009>011-018-025>026-220700-
   North Central Minnesota

CITY           SKY/WX    TMP DP  RH WIND       PRES   REMARKS
BAUDETTE       CLEAR     47  45  93 SW5       30.14F
FLAG ISLAND    CLEAR     54  48  82 SW14      30.11F
INTL FALLS     CLEAR     47  46  97 SW5       30.14F
6HR MIN TEMP:  40; 6HR MAX TEMP:  54;

WASKISH        CLEAR     50  50 100 CALM      30.17F
BIG FORK       FOG       45  43  93 CALM      30.18F VSB 1/4
LONGVILLE      CLEAR     43  43 100 CALM      30.19F
GRAND RAPIDS   CLEAR     48  46  93 W3        30.20R
CRANE LAKE     MOCLDY    52  48  87 CALM      30.16F
ORR            CLEAR     48  45  87 CALM      30.15S
COOK           PTCLDY    48  46  93 CALM      30.17S
WALKER         FAIR      42  42  98 CALM      30.20S
$$
MNZ012-019>021-037-220700-
   Northeast Minnesota

CITY           SKY/WX    TMP DP  RH WIND       PRES   REMARKS
DULUTH         MOCLDY    51  46  83 NW8       30.18S
6HR MIN TEMP:  46; 6HR MAX TEMP:  58;

ELY            CLOUDY    46  45  93 CALM      30.15F
HIBBING        PTCLDY    41  39  93 CALM      30.18S FOG
EVELETH        CLEAR     45  43  93 W3        30.18S
DULUTH HARBOR  CLEAR     48  46  93 S6        30.19R
TWO HARBORS    CLOUDY    48  43  81 NW3       30.16R
SILVER BAY     CLEAR     39  39 100 CALM      30.15S
GRAND MARAIS     N/A     46  43  89 W3        30.13S
G MARAIS ARPRT PTCLDY    39  37  93 W3        30.13S
$$
MNZ029>031-032-039>041-046>048-054>057-064-220700-
   West Central Minnesota

CITY           SKY/WX    TMP DP  RH WIND       PRES   REMARKS
FERGUS FALLS   CLEAR     48  46  93 S3        30.24S
WHEATON        FAIR      50  46  87 S7        30.25S
MORRIS         CLEAR     46  45  93 S3        30.24R
ALEXANDRIA     PTCLDY    46  44  93 SW3       30.25R FOG
ELBOW LAKE     FAIR      47  47  98 S5        30.23S
WADENA         CLEAR     39  39 100 CALM      30.22S FOG
GLENWOOD       CLEAR     45  45 100 SW3       30.25R FOG
APPLETON       CLEAR     45  43  93 CALM      30.24S
BENSON         PTCLDY    43  43 100 CALM      30.25R
ORTONVILLE     CLEAR     48  45  87 CALM      30.24S
MADISON        CLEAR     48  46  93 SW3       30.24F
WILLMAR        FAIR      45  43  93 CALM      30.26S
$$
MNZ033>034-036-042>043-049>051-058-059-220700-
   Central Minnesota

CITY           SKY/WX    TMP DP  RH WIND       PRES   REMARKS
ST CLOUD       CLEAR     49  45  86 W3        30.23S
6HR MIN TEMP:  49; 6HR MAX TEMP:  64;

SAUK CENTRE    FOG       42  42  99 CALM      30.24S VSB 1/2
PAYNESVILLE    CLEAR     40  40 100 CALM      30.24F
AITKIN         HAZE      45  39  81 CALM      30.19F VSB 1
PINE RIVER     FOG       43  43 100 CALM      30.24S VSB 1/2
BRAINERD       CLEAR     44  44 100 CALM      30.22F FOG
STAPLES        CLEAR     43  43 100 CALM      30.22S
LONG PRAIRIE   FAIR      43  43 100 CALM      30.24R
LITTLE FALLS   FOG       41  39  93 CALM      30.23S VSB 1
LITCHFIELD     CLEAR     48  48 100 CALM      30.25S
BUFFALO        CLEAR     52  48  87 CALM      30.24S
MAPLE LAKE     CLEAR     50  48  93 CALM      30.24F
$$
MNZ037-044-045-052-053-220700-
   East Central Minnesota

CITY           SKY/WX    TMP DP  RH WIND       PRES   REMARKS
PRINCETON      CLEAR     46  45  93 W1        30.23S
MORA           CLEAR     45  45 100 CALM      30.23S
CAMBRIDGE      HAZE      48  43  81 CALM      30.20F VSB 3/4
RUSH CITY      PTCLDY    46  44  95 CALM      30.22R
MOOSE LAKE     CLEAR     43  41  93 CALM      30.18S
HINCKLEY       FAIR      46  45  93 W5        30.21S
CLOQUET        CLEAR     46  45  93 W5        30.18S
MCGREGOR       CLEAR     45  43  93 CALM      30.20F
$$
MNZ071>073-080-081-089-090-097-098-220700-
   Southwest Minnesota

CITY           SKY/WX    TMP DP  RH WIND       PRES   REMARKS
MONTEVIDEO     CLEAR     46  45  93 W3        30.26S
GRANITE FALLS  CLEAR     41  40  98 SW3       30.27R
CANBY          FAIR      46  45  95 CALM      30.27S
MARSHALL       CLEAR     46  41  81 CALM      30.25F
REDWOOD FALLS  CLEAR     49  46  90 SW3       30.25S
OLIVIA         CLEAR     46  43  87 CALM      30.24S
PIPESTONE      CLEAR     48  45  87 CALM      30.27S
WINDOM         CLEAR     45  43  93 CALM      30.27S FOG
WORTHINGTON    CLEAR     45  43  93 CALM      30.28S
JACKSON        CLEAR     45  43  93 CALM      30.27S FOG
TRACY          CLEAR     50  47  90 CALM      30.27S
SLAYTON        CLEAR     45  43  92 CALM      30.28S
$$
MNZ065>067-074>077-082>085-091>093-220700-
   South Central Minnesota

CITY           SKY/WX    TMP DP  RH WIND       PRES   REMARKS
MANKATO        CLEAR     52  45  76 NW3       30.25R
NEW ULM        CLEAR     45  45 100 CALM      30.26R
ST JAMES       CLEAR     45  43  93 CALM      30.27S
FAIRMONT       CLEAR     48  43  81 NW3       30.26S
GLENCOE        CLEAR     50  46  86 CALM      30.24S
FARIBAULT      CLEAR     52  46  82 CALM      30.24S
OWATONNA       CLEAR     46  45  93 CALM      30.24S
WASECA         CLEAR     46  43  87 NW5       30.26R
ALBERT LEA     CLEAR     52  48  87 CALM      30.24S
$$
MNZ078>079-086>088-094>096-220700-
   Southeast Minnesota

CITY           SKY/WX    TMP DP  RH WIND       PRES   REMARKS
ROCHESTER      CLEAR     48  45  89 W8        30.24R
6HR MIN TEMP:  48; 6HR MAX TEMP:  58;

RED WING       CLEAR     46  45  93 CALM      30.21F
STANTON        CLEAR     46  44  92 CALM      30.22S
DODGE CENTER   CLEAR     48  46  93 CALM      30.23S
WINONA         CLEAR     48  46  93 CALM      30.23R
AUSTIN         CLEAR     46  46 100 CALM      30.24S
PRESTON        CLEAR     47  47 100 NW3       30.24R
$$
ABBREVIATIONS USED IN REMARKS
   TC - TEMPERATURES IN CELSIUS
  WCI - WIND CHILL INDEX
   HX - HEAT INDEX
  VSB - VISIBILITY
$$



USA.gov is the U.S. government's official web portal to all federal, state and local government web resources and services.